COSMOS 2251 DEB

Satellite information

Favourite Embed

Satellite Type and Status

DEBRISIN ORBIT

Key statistics

Satellite COSMOS 2251 DEB at a glance.

Uptime

11653

Days in orbit

Revolutions

≈ 15.1

Per day

Orbit

LEO

Low Earth Orbit

Inclination

74.0

Latest

Satellite identification and parameters

Extended collection of information and parameters for COSMOS 2251 DEB.

Object identification

Identified? True

Debris? True

Object name: COSMOS 2251 DEB

International designator: 1993-036AHA

Object number (NORAD): 35037

Object ID (CCSDS): 35037

Country: COMMONWEALTH OF INDEPENDENT STATES (CIS)

Current information (Y/N): Y

RCS size: SMALL

Orbital parameters

Period: 95.16 minutes

Inclination: 73.9795 deg

SMA: 6904.485 km

Apoapsis: 540.142 km

Periapsis: 512.558 km

RAAN: 237.5039 deg

Eccentricy: 0.0019975

Argument of periapsis: 77.6795 deg

Mean anomaly: 282.6633 deg

Mean motion: 15.13233128 rev/day

Mean motion (dot): 0.00047719 rev/day2

B* drag term: 0.0026565 1/REarth

Two-line elements (TLE)

Creation date: May 11, 2025, 10:56 p.m.

Reference frame: TEME

Reference center: EARTH

Epoch: May 11, 2025, 12:23 a.m. UTC

TLE line 0: 0 COSMOS 2251 DEB

TLE line 1: 1 35037U 93036AHA 25131.01654907 .00047719 00000-0 26565-2 0 9997

TLE line 2: 2 35037 73.9795 237.5039 0019975 77.6795 282.6633 15.13233128854524

Live tracking on map

Real-time ground track for satellite COSMOS 2251 DEB.

In-orbit conjunctions

A list of the most updated potential collisions computed for object COSMOS 2251 DEB.

Target Orbit TCA Probability of collision Miss distance Type
CSTB 1 SSO 2024-06-02 01:24:40 0.0001454947 748.0 (m) PAYLOAD

Associated space launch

Military communications satellite. Destroyed in a collision with Iridium 33.

COSMOS 2251 DEB was lifted into orbit during the mission ‘Kosmos-3M | Strela-2M 51’, on board a Kosmos-3M space rocket.

The launch took place on June 16, 1993, 4:17 a.m. from 132/1 (132L).

For more information about the launch, click the button.

Launch to space Kosmos-3M | Strela-2M 51
Kosmos-3M | Strela-2M 51

Agency: N/A

Status: Launch Successful

Launch date: June 16, 1993, 4:17 a.m. UTC

Rocket: Kosmos-3M

Launch pad: 132/1 (132L)

Location: Plesetsk Cosmodrome, Russian Federation

...

Latest news about this satellite

There are no fresh news available about this satellite. Check back as we update our databases every day.


Newsletter sign-up

Weekly statistics, charts and insights to help you stay on top of the space industry.